Location: Unspecified
(0.0000°N, 0.0000°E)
Time: 02:33:28
(UTC+02:00)

Tiros 1 despin weight - All Passes

Search period start: 29 July 2014 00:00
Search period end: 08 August 2014 00:00
Orbit: 602 x 653 km, 48.2° (Epoch: 28 July)

Date Brightness Start Highest point End Pass type
(mag) Time Alt. Az. Time Alt. Az. Time Alt. Az.
29 Jul - 03:22:43 10° N 03:25:59 20° NE 03:29:15 10° E night (unlit)
29 Jul - 05:03:43 10° WNW 05:07:32 28° SW 05:11:25 10° S night (unlit)
29 Jul - 15:31:32 10° SSW 15:35:53 35° SE 15:40:10 10° ENE daylight
29 Jul - 17:14:18 10° W 17:17:29 18° NW 17:20:39 10° N daylight
30 Jul - 03:41:05 10° NNW 03:45:27 59° NE 03:49:52 10° SE night (unlit)
30 Jul - 15:50:37 10° SW 15:55:21 78° NW 16:00:01 10° NE daylight
31 Jul - 02:21:16 10° NNE 02:23:19 13° NE 02:25:23 10° ENE night (unlit)
31 Jul - 04:00:41 10° WNW 04:04:54 43° SW 04:09:11 10° SSE night (unlit)
31 Jul - 14:29:24 10° S 14:33:12 24° SE 14:36:58 10° ENE daylight
31 Jul - 16:10:50 10° WSW 16:14:49 27° NW 16:18:46 10° N daylight
01 Aug - 02:38:44 10° NNW 02:42:50 37° NE 02:46:57 10° ESE night (unlit)
01 Aug - 04:21:49 10° W 04:24:26 15° SW 04:27:04 10° SSW night (unlit)
01 Aug - 14:47:58 10° SSW 14:52:41 68° SE 14:57:21 10° NE daylight
02 Aug - 02:57:52 10° NW 03:02:17 70° SW 03:06:44 10° SSE night (unlit)
02 Aug - 13:27:36 10° SSE 13:30:30 16° SE 13:33:22 10° E daylight
02 Aug - 15:07:41 10° WSW 15:12:08 41° NW 15:16:33 10° NNE daylight
03 Aug - 01:36:36 10° N 01:40:11 24° NE 01:43:47 10° ESE night (unlit)
03 Aug - 03:18:14 10° WNW 03:21:45 23° SW 03:25:19 10° S night (unlit)
03 Aug - 13:45:30 10° SSW 13:50:01 43° SE 13:54:29 10° ENE daylight
03 Aug - 15:28:57 10° W 15:31:39 15° NW 15:34:20 10° NNW daylight
04 Aug - 01:55:14 10° NW 01:59:39 74° NE 02:04:05 10° SE night (unlit)
04 Aug - 12:27:03 10° SE 12:27:46 10° SE 12:28:29 10° ESE daylight
04 Aug - 14:04:46 10° SW 14:09:28 64° NW 14:14:08 10° NNE daylight
05 Aug - 00:34:50 10° NNE 00:37:32 16° NE 00:40:14 10° E night (unlit)
05 Aug - 02:15:03 10° WNW 02:19:06 35° SW 02:23:11 10° SSE night (unlit)
05 Aug - 12:43:15 10° S 12:47:19 28° SE 12:51:23 10° ENE daylight
05 Aug - 14:25:14 10° WSW 14:28:56 23° NW 14:32:37 10° N daylight
06 Aug - 00:52:47 10° NNW 00:57:01 45° NE 01:01:16 10° SE night (unlit)
06 Aug - 02:36:45 10° WSW 02:38:38 12° SW 02:40:31 10° SSW night (unlit)
06 Aug - 13:02:03 10° SW 13:06:47 83° SE 13:11:31 10° NE daylight
06 Aug - 23:34:33 10° NE 23:34:50 10° NE 23:35:07 10° NE night (unlit)
07 Aug - 01:12:07 10° NW 01:16:27 56° SW 01:20:49 10° SSE night (unlit)
07 Aug - 11:41:16 10° S 11:44:37 19° SE 11:47:58 10° E daylight
07 Aug - 13:21:58 10° WSW 13:26:15 34° NW 13:30:30 10° NNE daylight
07 Aug - 23:50:30 10° N 23:54:22 29° NE 23:58:13 10° ESE night (unlit)
